Regional Weather Roundup
Issued by NWS Newport/Morehead, NC

Current Version | Previous Version | Text Only | Print | Product List | Glossary Off
Versions: 1 2 3 4 5 6 7 8 9 10 11 12 13 14 15 16 17 18 19 20 21 22 23 24 25 26 27 28 29 30 31 32 33 34 35 36 37 38 39 40 41 42 43 44 45 46 47 48 49 50
000 ASUS42 KMHX 251210 RWRMHX WEATHER ROUNDUP FOR EASTERN NORTH CAROLINA NATIONAL WEATHER SERVICE NEWPORT/MOREHEAD CITY NC 800 AM EDT FRI JUL 25 2014 NOTE: "FAIR" INDICATES FEW OR NO CLOUDS BELOW 12,000 FEET WITH NO SIGNIFICANT WEATHER AND/OR OBSTRUCTIONS TO VISIBILITY NCZ015>017-031-032-045>047-102-103-251300- NORTH COAST CITY SKY/WX TMP DP RH WIND PRES REMARKS EDENTON SUNNY 71 69 94 N5 30.03R ELIZABETH CITY SUNNY 73 69 87 NW8 30.02R KITTY HAWK SUNNY 74 68 81 N3 29.99R MANTEO NOT AVBL $$ NCZ045>047-081-094-103-104-251300- CENTRAL COAST CITY SKY/WX TMP DP RH WIND PRES REMARKS FRISCO PTSUNNY 74 71 91 VRB6 30.00R SWANQUARTER N/A 72 N/A N/A NW1G7 30.00R $$ NCZ095-097-098-100-101-251300- SOUTHERN COAST CITY SKY/WX TMP DP RH WIND PRES REMARKS BEAUFORT CLOUDY 70 69 97 N8 30.02R FOG CEDAR ISLAND N/A 73 N/A N/A N9 30.06S JACKSONVILLE CLOUDY 69 68 96 N7 30.02R NEWPORT NOT AVBL PINEY ISLAND MOSUNNY 73 72 96 N9 30.02R WILMINGTON FOG 72 71 97 NE10 30.00R VSB 3/4 $$ NCZ011>013-027>030-043-044-078>080-089-090>093-098-251300- COASTAL PLAIN CITY SKY/WX TMP DP RH WIND PRES REMARKS AHOSKIE PTSUNNY 68 66 93 N3 30.05R CLINTON CLOUDY 69 68 96 CALM 30.03R ELIZABETHTOWN CLOUDY 69 69 100 CALM 30.02R GOLDSBORO CLOUDY 68 68 99 NE6 30.02R GREENVILLE CLOUDY 70 68 94 N5 30.06R HAVELOCK CLOUDY 69 67 93 N7 30.04R KENANSVILLE CLOUDY 68 66 94 N6 30.04R KINSTON CLOUDY 70 68 94 NE6 30.04R FOG NEW BERN CLOUDY 70 67 90 NE6 30.04R RICHLANDS CLOUDY 66 64 94 N8 30.03R ROANOKE RAPIDS NOT AVBL ROCKY MOUNT CLOUDY 69 68 96 N7 30.04R FOG WASHINGTON CLOUDY 70 67 92 NE5 30.03R WHITEVILLE CLOUDY 71 70 97 NE5 30.01R FOG $$ AMZ130-135-150-152-154-156-158-170-250-252-270-ANZ085-086-088-633-658-670-251300- MARINE OBSERVATIONS STATION/POSITION TIME TEMP WIND PRES WAVE SWELL AIR SEA DIR/SP/G HT/PER HT/PER (UTC) (F) (DEG/KT/KT) (MB) (FT/S) (FT/S) CHESAPEAKE LIGHT NOT AVBL BUOY 44014 1200 77 78 350/ 10/ 12 1014.6 3/ 7 2/ 7 DUCK 1200 73 75 330/ 11/ 12 1015.2 2E DUCK 1200 N/A 2/ 4 OREGON INLET 1200 74 77 340/ 8/ 11 1015.6 BUOY 44095 1200 77 N/A 3/ 7 20E OREGON INLET 1100 VRB 14/ 19 N/A HATTERAS CG 1200 75 79 350/ 14/ 17 1016.3 DIAMOND BUOY 1200 VRB 12/ 14 1015.6 3/ 7 2/ 7 CAPE LOOKOUT 1100 71 350/ 10/ 14 1015.5 BEAUFORT LAB 1200 70 80 360/ 10/ 12 1016.2 30 SE NEW RIVER 1200 78 81 330/ 10/ 17 1016.0 4/ 6 3/ 6 5 SE WRIGHTSVILL 1100 72 81 290/ 10/ 12 N/A BUOY 41002 1120 82 82 240/ 17/ 21 1017.9 5/ 6 BUOY 41004 1200 83 82 250/ 10/ 12 1015.0 4/ 6 3/ 6 $$

USA.gov is the U.S. government's official web portal to all federal, state and local government web resources and services.